Location: Unspecified
(49.2170°N, 0.0000°E)
Time: 15:26:43
(UTC+00:00)

A-11 Canister half - Pass Details

Date: 22 June 2019
Orbit: 1526 x 1683 km, 47.3° (Epoch: 17 July)

Event Time Altitude Azimuth Distance (km) Brightness Sun altitude
Rises 06:52:12 0° 260° (W) 4,717 11.0 25.6°
Reaches altitude 10° 06:55:16 10° 260° (W) 3,720 10.5 26.1°
Maximum altitude 07:04:37 80° 175° (S) 1,551 9.5 27.6°
Drops below altitude 10° 07:13:56 10° 91° (E) 3,701 12.7 29.1°
Sets 07:16:58 0° 90° (E) 4,692 12.8 29.6°
